sat.trackr.live / text

‹ back to catalog

STARLINK-5441

NORAD 54787 · 2022-175AF

PAYLOAD ACTIVE UNKNOWN

§ Identity

Operator
Country
US
Launch date
2022-12-17
Launch site
AFETR
Launch vehicle
Mass (kg)
RCS (m²)

Purposes: comms

External: N2YO · Heavens-Above · Gunter

§ Orbital elements

Epoch: 2026-09-20T13:09:38.883744Z

Period
93.85 min
Inclination
53.1607°
Eccentricity
0.0001347
Mean motion
15.34388717 rev/d
Perigee alt
461.8 km
Apogee alt
463.7 km
Semi-major
6,840.9 km
B*
2.5731e-5
RAAN
237.6598°
Arg perigee
89.6205°
Mean anomaly
270.4952°
Rev number
20,949

§ Raw data

STARLINK-54411 54787U 22175AF  26263.54836671  .00000493  00000+0  25731-4 0  99942 54787  53.1607 237.6598 0001347  89.6205 270.4952 15.34388717209490

JSON: /api/v1/satellites/54787 · /tle

For live sub-satellite position, see the globe view (requires WebGL).

§ Visibility from observer

Set your observer location to see the next 7 days of passes ≥ 10°. The values pass through the URL so the page stays shareable.

No JS? Fill the form by hand. The geolocation button needs JavaScript.